1498651201.1,36491,20.25,73798.5,13.07,6.83,6.91,0,*42
1498651202.33,36492,20.19,73792.5,13.09,6.87,6.93,0,*49
1498651203.57,36493,20.25,73796.5,13.05,6.73,6.79,0,*4B
1498651204.75,36494,20.25,73792.0,13.03,6.75,6.97,0,*4C
1498651206.01,36495,20.25,73798.0,13.05,7.23,7.47,0,*45
1498651207.22,36496,20.25,73798.0,13.03,7.45,7.69,0,*4C
1498651208.46,36497,20.25,73798.5,13.01,7.29,7.65,0,*49
1498651209.7,36498,20.19,73798.0,13.01,7.27,7.55,0,*4B
1498651210.97,36499,20.25,73804.8,13.01,6.87,7.19,0,*49
1498651212.18,36500,20.25,73806.0,12.99,6.93,7.27,0,*40
1498651213.39,36501,20.25,73804.3,12.99,7.15,7.51,0,*4F
1498651214.61,36502,20.25,73806.3,12.99,7.15,7.45,0,*49
1498651215.83,36503,20.25,73804.8,12.99,7.29,7.77,0,*46
1498651217.04,36504,20.25,73804.5,12.99,7.45,7.95,0,*47
1498651218.26,36505,20.25,73800.5,12.99,7.15,7.51,0,*4B
1498651219.5,36506,20.25,73802.5,12.97,7.33,7.77,0,*46
1498651220.77,36507,20.25,73800.8,12.97,7.27,7.73,0,*46
1498651221.98,36508,20.19,73798.0,12.95,7.11,7.51,0,*4E
1498651223.19,36509,20.25,73800.0,12.95,7.23,7.59,0,*46
1498651224.36,36510,20.25,73796.8,12.95,7.01,7.33,0,*42
1498651225.54,36511,20.25,73796.5,12.89,7.09,7.45,0,*47
1498651226.79,36512,20.25,73794.8,12.91,6.91,7.11,0,*4C
1498651227.97,36513,20.25,73796.0,12.89,6.83,7.09,0,*4E
1498651229.21,36514,20.25,73796.5,12.89,6.51,6.61,0,*49
1498651230.47,36515,20.25,73798.3,12.87,5.93,5.93,0,*45
1498651231.71,36516,20.25,73794.0,12.85,6.51,6.43,0,*47
1498651232.94,36517,20.25,73790.8,12.83,6.17,6.11,0,*45
1498651234.12,36518,20.25,73788.3,12.81,6.93,6.93,0,*4E
1498651235.3,36519,20.25,73796.0,12.81,7.33,7.29,0,*44
1498651236.51,36520,20.25,73792.0,12.77,7.19,7.29,0,*4F
1498651237.72,36521,20.25,73798.8,12.77,7.15,7.29,0,*42
1498651238.92,36522,20.25,73798.5,12.75,7.01,7.01,0,*4C
1498651240.11,36523,20.25,73792.5,12.75,7.01,7.05,0,*49
1498651241.32,36524,20.25,73794.3,12.73,7.05,7.11,0,*49
1498651242.56,36525,20.25,73786.0,12.69,6.51,6.39,0,*48
1498651243.82,36526,20.19,73784.8,12.67,5.81,5.73,0,*46
1498651245.07,36527,20.25,73790.8,12.63,6.57,6.53,0,*4A
1498651246.33,36528,20.25,73784.8,12.63,6.87,6.91,0,*46
1498651247.54,36529,20.25,73782.8,12.61,6.97,7.11,0,*4D
1498651248.76,36530,20.25,73784.0,12.61,6.33,6.43,0,*4D
1498651250.0,36531,20.25,73784.8,12.61,6.61,6.87,0,*43
1498651251.17,36532,20.25,73786.5,12.59,6.75,7.01,0,*41
1498651252.41,36533,20.25,73788.0,12.57,6.93,7.19,0,*4F
1498651253.65,36534,20.25,73790.0,12.57,6.97,7.27,0,*41
1498651254.91,36535,20.25,73792.3,12.57,6.47,6.51,0,*4D
1498651256.14,36536,20.25,73792.8,12.55,6.57,6.51,0,*4D
1498651257.34,36537,20.25,73794.5,12.53,6.79,6.79,0,*4C
1498651258.52,36538,20.25,73788.3,12.51,7.05,7.01,0,*45
1498651259.69,36539,20.25,73790.3,12.51,7.01,7.05,0,*44
1498651260.9,36540,20.25,73786.8,12.51,6.79,6.65,0,*43
1498651262.16,36541,20.19,73782.8,12.49,6.61,6.43,0,*46
1498651263.37,36542,20.25,73784.0,12.45,6.93,6.93,0,*49
1498651264.58,36543,20.25,73786.0,12.43,7.27,7.29,0,*40
1498651265.77,36544,20.19,73784.5,12.43,7.37,7.29,0,*46
1498651266.94,36545,20.25,73782.3,12.43,7.33,7.37,0,*4C
1498651268.15,36546,20.25,73786.8,12.41,7.05,7.05,0,*49
1498651269.41,36547,20.19,73784.5,12.41,7.11,7.15,0,*4C
1498651270.64,36548,20.25,73790.0,12.41,7.27,7.33,0,*42
1498651271.9,36549,20.25,73790.3,12.37,6.43,6.51,0,*44
1498651273.13,36550,20.25,73794.0,12.39,6.43,6.53,0,*40
1498651274.36,36551,20.25,73798.0,12.37,6.91,7.01,0,*46
1498651275.54,36552,20.25,73798.3,12.35,7.05,7.09,0,*43
1498651276.79,36553,20.25,73804.5,12.33,6.53,6.53,0,*48
1498651277.99,36554,20.25,73798.3,12.31,6.79,6.73,0,*47
1498651279.17,36555,20.25,73806.3,12.31,6.83,6.93,0,*4D
1498651280.35,36556,20.25,73800.0,12.31,6.93,7.05,0,*41
1498651281.58,36557,20.25,73798.5,12.31,6.73,6.91,0,*42
1498651282.81,36558,20.25,73796.0,12.29,7.01,7.19,0,*41
1498651284.02,36559,20.19,73806.5,12.23,6.73,6.75,0,*45
1498651285.2,36560,20.25,73810.0,12.27,7.09,7.01,0,*45
1498651286.37,36561,20.25,73804.5,12.23,7.05,7.09,0,*44
1498651287.56,36562,20.25,73806.5,12.23,6.97,6.97,0,*4B
1498651288.74,36563,20.25,73810.0,12.23,6.93,6.93,0,*4A
1498651289.94,36564,20.25,73812.3,12.23,7.15,7.05,0,*4C
1498651291.14,36565,20.25,73812.8,12.21,7.41,7.37,0,*4F
1498651292.39,36566,20.25,73814.0,12.21,7.11,7.15,0,*49
1498651293.61,36567,20.25,73816.0,12.19,7.61,7.59,0,*4C
1498651294.84,36568,20.25,73814.5,12.21,7.61,7.59,0,*48
1498651296.02,36569,20.25,73814.8,12.19,7.59,7.51,0,*41
1498651297.23,36570,20.25,73816.5,12.19,7.41,7.27,0,*41
1498651298.46,36571,20.25,73816.8,12.19,7.11,7.11,0,*40
1498651299.67,36572,20.25,73814.8,12.19,7.29,7.23,0,*49
1498651300.88,36573,20.25,73812.5,12.17,7.55,7.55,0,*4C
1498651302.09,36574,20.25,73812.8,12.17,8.01,7.97,0,*4B
1498651303.35,36575,20.25,73812.3,12.17,8.13,8.13,0,*4A
1498651304.55,36576,20.25,73818.0,12.15,8.29,8.23,0,*41
1498651305.79,36577,20.25,73814.8,12.17,8.33,8.27,0,*4D
1498651306.99,36578,20.25,73816.5,12.17,8.23,8.23,0,*47
1498651308.25,36579,20.25,73818.5,12.17,8.37,8.37,0,*46
1498651309.44,36580,20.25,73812.3,12.19,8.19,8.19,0,*4E
1498651310.62,36581,20.25,73814.8,12.19,8.09,8.09,0,*4F
1498651311.81,36582,20.25,73812.8,12.19,8.15,8.19,0,*40
1498651313.02,36583,20.25,73812.5,12.17,8.23,8.23,0,*43
1498651314.27,36584,20.25,73808.0,12.17,7.87,7.87,0,*44
1498651315.48,36585,20.25,73808.8,12.17,7.37,7.37,0,*45
1498651316.73,36586,20.25,73810.8,12.17,6.69,6.69,0,*46
1498651317.91,36587,20.25,73812.5,12.15,7.51,7.45,0,*40
1498651319.09,36588,20.25,73808.3,12.15,7.51,7.51,0,*4A
1498651320.29,36589,20.25,73810.5,12.15,7.33,7.23,0,*4A
1498651321.53,36590,20.25,73812.5,12.15,7.23,7.15,0,*46
1498651322.76,36591,20.25,73808.8,12.11,7.47,7.47,0,*46
1498651323.97,36592,20.25,73804.3,12.11,7.79,7.73,0,*4F
1498651325.18,36593,20.25,73804.8,12.11,7.69,7.59,0,*47
1498651326.43,36594,20.25,73804.0,12.13,7.83,7.91,0,*42
1498651327.62,36595,20.25,73802.0,12.11,8.27,8.19,0,*4F
1498651328.88,36596,20.25,73802.5,12.13,7.83,7.73,0,*4C
1498651330.09,36597,20.25,73796.8,12.11,7.83,7.79,0,*45
1498651331.27,36598,20.25,73794.5,12.11,8.09,7.97,0,*47
1498651332.5,36599,20.25,73792.5,12.11,7.95,7.91,0,*4A
1498651333.75,36600,20.25,73794.8,12.09,7.69,7.65,0,*48
1498651335.0,36601,20.25,73796.8,12.09,7.91,7.87,0,*42
1498651336.26,36602,20.25,73796.3,12.09,7.91,7.87,0,*41
1498651337.46,36603,20.25,73800.8,12.11,7.97,7.91,0,*48
1498651338.66,36604,20.25,73794.0,12.09,8.01,8.01,0,*40
1498651339.9,36605,20.25,73792.8,12.11,7.83,7.73,0,*47
1498651341.15,36606,20.25,73794.3,12.09,7.65,7.65,0,*42
1498651342.32,36607,20.25,73798.8,12.11,7.97,7.97,0,*4A
1498651343.53,36608,20.25,73796.8,12.07,7.47,7.55,0,*41
1498651344.76,36609,20.25,73784.5,12.07,7.27,7.27,0,*43
1498651345.93,36610,20.25,73788.0,12.07,7.01,7.09,0,*43
1498651347.14,36611,20.25,73786.0,12.01,7.05,7.09,0,*40
1498651348.34,36612,20.25,73778.8,12.05,6.83,6.83,0,*4B
1498651349.55,36613,20.25,73782.5,12.01,7.05,7.05,0,*4E
1498651350.76,36614,20.19,73782.0,12.01,7.51,7.59,0,*41
1498651351.94,36615,20.25,73788.8,11.99,7.37,7.37,0,*4A
1498651353.15,36616,20.25,73778.8,11.97,7.79,7.79,0,*47
1498651354.39,36617,20.25,73786.8,11.97,8.13,8.05,0,*41
1498651355.62,36618,20.25,73786.8,11.99,7.83,7.87,0,*43
1498651356.83,36619,20.25,73778.5,11.99,7.47,7.59,0,*49
1498651358.06,36620,20.25,73778.5,11.97,7.79,7.83,0,*47
1498651359.26,36621,20.19,73778.5,11.97,8.05,8.09,0,*4F
1498651360.47,36622,20.25,73780.8,11.97,7.37,7.37,0,*40
1498651361.7,36623,20.25,73786.5,11.97,7.27,7.37,0,*40
1498651362.96,36624,20.25,73782.5,11.97,7.65,7.77,0,*45
1498651364.19,36625,20.25,73780.0,11.97,7.79,7.83,0,*42
1498651365.45,36626,20.25,73776.8,11.97,7.91,7.91,0,*44
1498651366.66,36627,20.25,73786.8,11.95,7.45,7.29,0,*4D
1498651367.87,36628,20.25,73782.8,11.95,7.09,6.97,0,*4E
1498651369.04,36629,20.25,73782.3,11.93,7.01,6.93,0,*45
1498651370.22,36630,20.25,73780.0,11.93,7.51,7.41,0,*46
1498651371.44,36631,20.25,73780.5,11.91,7.51,7.47,0,*43
1498651372.64,36632,20.25,73784.5,11.91,7.05,6.97,0,*4D
1498651373.84,36633,20.25,73786.0,11.89,7.11,7.05,0,*4A
1498651375.01,36634,20.25,73790.0,11.89,6.79,6.79,0,*48
1498651376.21,36635,20.25,73784.3,11.89,6.79,6.65,0,*44
1498651377.44,36636,20.25,73788.8,11.85,6.73,6.65,0,*41
1498651378.68,36637,20.25,73790.5,11.85,6.65,6.61,0,*43
1498651379.89,36638,20.25,73788.3,11.81,6.17,6.03,0,*49
1498651381.15,36639,20.25,73790.5,11.79,6.39,6.39,0,*4A
1498651382.36,36640,20.25,73788.8,11.81,6.13,5.99,0,*42
1498651383.57,36641,20.25,73788.0,11.75,6.07,5.95,0,*41
1498651384.81,36642,20.25,73790.0,11.73,6.43,6.43,0,*4C
1498651385.99,36643,20.25,73786.8,11.73,7.01,6.97,0,*43
1498651387.22,36644,20.25,73794.8,11.71,6.75,6.73,0,*4E
1498651388.47,36645,20.25,73794.3,11.71,6.69,6.69,0,*49
1498651389.71,36646,20.25,73800.3,11.71,6.73,6.75,0,*4C
1498651390.92,36647,20.25,73802.8,11.69,6.69,6.75,0,*4F
1498651392.1,36648,20.25,73802.5,11.69,6.83,6.83,0,*4D
1498651393.28,36649,20.25,73802.0,11.69,6.75,6.75,0,*4C
1498651394.49,36650,20.25,73800.3,11.69,6.83,6.87,0,*40
1498651395.72,36651,20.25,73796.5,11.65,7.27,7.23,0,*4D
1498651396.93,36652,20.25,73796.5,11.67,7.51,7.51,0,*48
1498651398.15,36653,20.25,73798.3,11.67,7.79,7.79,0,*49
1498651399.39,36654,20.25,73800.3,11.67,7.79,7.73,0,*44
1498651400.6,36655,20.25,73806.3,11.69,7.47,7.55,0,*42
1498651401.83,36656,20.25,73804.5,11.69,7.83,7.83,0,*42
1498651403.04,36657,20.25,73800.5,11.71,7.51,7.55,0,*4E
1498651404.23,36658,20.25,73796.0,11.69,7.29,7.41,0,*42
1498651405.42,36659,20.25,73796.8,11.69,7.51,7.55,0,*49
1498651406.65,36660,20.25,73794.0,11.69,7.77,7.83,0,*4C
1498651407.86,36661,20.25,73794.3,11.69,7.95,8.09,0,*4C
1498651409.12,36662,20.25,73800.8,11.71,7.77,7.87,0,*43
1498651410.39,36663,20.25,73802.5,11.71,7.73,7.87,0,*46
1498651411.65,36664,20.25,73802.5,11.71,7.61,7.73,0,*49
1498651412.9,36665,20.25,73800.8,11.71,7.55,7.77,0,*4B
1498651414.14,36666,20.19,73798.3,11.71,7.47,7.55,0,*4B
1498651415.37,36667,20.25,73800.5,11.71,7.51,7.65,0,*4E
1498651416.62,36668,20.25,73796.8,11.71,7.55,7.73,0,*42
1498651417.86,36669,20.25,73798.8,11.71,7.55,7.77,0,*47
1498651419.12,36670,20.25,73802.3,11.71,7.61,7.87,0,*47
1498651420.33,36671,20.25,73806.5,11.73,7.65,7.79,0,*41
1498651421.56,36672,20.25,73802.0,11.73,7.65,7.91,0,*44
1498651422.77,36673,20.25,73802.5,11.73,7.91,8.23,0,*48
1498651423.96,36674,20.25,73804.0,11.73,8.01,8.27,0,*4D
1498651425.17,36675,20.25,73806.3,11.73,7.59,7.87,0,*4B
1498651426.4,36676,20.25,73802.0,11.75,7.45,7.69,0,*43
1498651427.59,36677,20.25,73810.0,11.73,7.45,7.79,0,*45
1498651428.79,36678,20.25,73818.5,11.73,7.41,7.65,0,*43
1498651430.01,36679,20.25,73804.0,11.73,7.51,7.77,0,*40
1498651431.22,36680,20.25,73800.3,11.73,7.55,7.83,0,*49
1498651432.43,36681,20.25,73802.5,11.73,7.45,7.77,0,*42
1498651433.65,36682,20.25,73808.0,11.75,7.79,8.01,0,*46
1498651434.91,36683,20.25,73810.5,11.75,7.95,8.13,0,*46
1498651436.12,36684,20.25,73810.5,11.75,7.55,7.79,0,*4E
1498651437.38,36685,20.25,73800.3,11.75,7.83,7.91,0,*42
1498651438.61,36686,20.25,73804.3,11.75,7.61,7.79,0,*4B
1498651439.88,36687,20.25,73802.8,11.79,7.77,7.87,0,*40
1498651441.12,36688,20.25,73798.3,11.75,8.13,8.27,0,*4B
1498651442.33,36689,20.25,73798.3,11.79,8.09,8.19,0,*40
1498651443.53,36690,20.25,73796.5,11.79,7.97,8.09,0,*41
1498651444.71,36691,20.25,73794.0,11.81,7.97,8.09,0,*47
1498651445.97,36692,20.25,73798.0,11.79,8.33,8.51,0,*4F
1498651447.2,36693,20.25,73788.3,11.81,7.65,7.83,0,*45
1498651448.4,36694,20.25,73794.8,11.81,8.09,8.29,0,*48
1498651449.64,36695,20.25,73794.0,11.79,7.83,8.05,0,*4D
1498651450.83,36696,20.25,73792.3,11.81,8.19,8.27,0,*45
1498651452.01,36697,20.25,73796.5,11.81,8.09,8.15,0,*44
1498651453.21,36698,20.25,73800.8,11.81,8.45,8.51,0,*43
1498651454.42,36699,20.25,73800.3,11.85,8.51,8.45,0,*46
1498651455.63,36700,20.25,73806.8,11.85,8.13,8.23,0,*41
1498651456.81,36701,20.25,73806.3,11.85,8.09,8.19,0,*42
1498651458.02,36702,20.19,73800.5,11.85,8.23,8.33,0,*41
1498651459.2,36703,20.25,73804.5,11.85,7.97,7.97,0,*41
1498651460.4,36704,20.25,73804.5,11.85,8.09,8.13,0,*4D
1498651461.64,36705,20.25,73806.3,11.87,7.59,7.69,0,*46
1498651462.88,36706,20.25,73806.8,11.87,8.13,8.15,0,*40
1498651464.11,36707,20.25,73804.0,11.87,8.13,8.09,0,*4C
1498651465.32,36708,20.25,73808.0,11.85,8.33,8.45,0,*4B
1498651466.5,36709,20.25,73810.8,11.85,8.65,8.65,0,*4B
1498651467.74,36710,20.25,73814.8,11.87,8.37,8.27,0,*40
1498651468.92,36711,20.25,73814.8,11.89,8.23,8.23,0,*4E
1498651470.16,36712,20.25,73812.5,11.87,8.15,8.13,0,*45
1498651471.41,36713,20.25,73816.3,11.91,8.37,8.37,0,*45
1498651472.63,36714,20.25,73820.3,11.93,8.33,8.29,0,*4B
1498651473.86,36715,20.25,73820.5,11.89,8.47,8.59,0,*45
1498651475.09,36716,20.25,73820.0,11.91,8.45,8.51,0,*45
1498651476.32,36717,20.25,73818.5,11.93,7.65,7.77,0,*40
1498651477.56,36718,20.25,73822.3,11.95,7.51,7.77,0,*4E
1498651478.76,36719,20.25,73824.5,11.93,7.45,7.65,0,*4F
1498651479.99,36720,20.25,73822.5,11.95,7.33,7.61,0,*46
1498651481.23,36721,20.25,73828.3,11.95,6.93,7.19,0,*43
1498651482.45,36722,20.25,73826.8,11.95,6.97,7.29,0,*47
1498651483.65,36723,20.25,73824.5,11.95,6.83,7.09,0,*41
1498651484.85,36724,20.25,73818.5,11.99,6.69,6.83,0,*4D
1498651486.07,36725,20.25,73816.8,11.99,6.33,6.51,0,*4C
1498651487.28,36726,20.25,73816.0,11.99,6.21,6.39,0,*42
1498651488.52,36727,20.25,73814.3,12.01,5.93,6.11,0,*41
1498651489.73,36728,20.25,73812.0,12.01,5.99,6.25,0,*43
1498651490.96,36729,20.25,73816.0,12.05,5.85,6.25,0,*4B
1498651492.21,36730,20.25,73804.8,12.05,6.17,6.73,0,*48
1498651493.44,36731,20.25,73804.5,12.07,6.39,7.15,0,*46
1498651494.65,36732,20.25,73806.3,12.07,6.29,7.23,0,*41
1498651495.87,36733,20.25,73816.3,12.09,5.85,7.01,0,*4B
1498651497.11,36734,20.25,73826.3,12.09,4.89,6.47,0,*42
1498651498.3,36735,20.25,73820.3,12.11,4.81,6.57,0,*43
1498651499.51,36736,20.25,73818.0,12.11,4.41,6.51,0,*4A
1498651500.74,36737,20.25,73822.8,12.11,4.31,6.73,0,*4C
1498651501.95,36738,20.25,73828.3,12.11,4.27,6.91,0,*48
1498651503.16,36739,20.25,73836.8,12.11,4.27,7.11,0,*40
1498651504.41,36740,20.25,73836.8,12.13,4.01,7.11,0,*48
1498651505.62,36741,20.25,73836.8,12.15,3.63,6.87,0,*42
1498651506.87,36742,20.25,73836.0,12.17,3.53,6.91,0,*47
1498651508.1,36743,20.25,73838.5,12.17,3.79,7.09,0,*4E
1498651509.35,36744,20.25,73836.0,12.17,3.97,7.19,0,*48
1498651510.54,36745,20.25,73832.0,12.15,4.27,7.45,0,*4E
1498651511.76,36746,20.25,73830.8,12.17,4.81,7.87,0,*4D
1498651512.99,36747,20.25,73832.3,12.17,4.79,7.59,0,*48
1498651514.25,36748,20.25,73828.3,12.17,5.05,7.65,0,*42
1498651515.46,36749,20.25,73830.0,12.19,5.23,7.73,0,*4E
1498651516.7,36750,20.19,73832.5,12.21,4.93,7.29,0,*48
1498651517.93,36751,20.25,73838.8,12.21,5.05,7.51,0,*48
1498651519.12,36752,20.25,73830.8,12.19,4.37,7.01,0,*45
1498651520.35,36753,20.25,73828.0,12.21,4.15,7.27,0,*4B
1498651521.59,36754,20.25,73826.5,12.21,3.53,6.53,0,*4B
1498651522.84,36755,20.25,73828.3,12.21,3.71,6.53,0,*4A
1498651524.07,36756,20.25,73820.0,12.27,3.49,6.39,0,*48
1498651525.31,36757,20.25,73822.8,12.23,3.75,6.51,0,*4C
1498651526.51,36758,20.25,73822.5,12.27,4.49,7.19,0,*42
1498651527.72,36759,20.25,73822.8,12.27,4.49,6.91,0,*42
1498651528.9,36760,20.25,73826.0,12.27,4.41,6.79,0,*46
1498651530.13,36761,20.25,73822.5,12.29,4.45,6.87,0,*4C
1498651531.33,36762,20.25,73826.0,12.31,5.07,7.27,0,*4A
1498651532.53,36763,20.25,73830.0,12.31,5.07,7.15,0,*4A
1498651533.72,36764,20.25,73830.0,12.35,5.33,7.29,0,*41
1498651534.9,36765,20.25,73828.0,12.35,5.49,7.29,0,*4D
1498651536.1,36766,20.25,73830.5,12.35,5.37,7.15,0,*48
1498651537.33,36767,20.25,73822.5,12.35,5.01,6.61,0,*4E
1498651538.57,36768,20.25,73820.3,12.39,5.05,6.51,0,*4A
1498651539.8,36769,20.25,73820.0,12.37,5.23,6.51,0,*41
1498651541.0,36770,20.25,73820.0,12.39,5.15,6.39,0,*4C
1498651542.18,36771,20.25,73818.0,12.39,5.11,6.21,0,*40
1498651543.42,36772,20.25,73810.8,12.41,5.19,6.13,0,*45
1498651544.64,36773,20.25,73812.3,12.39,5.51,6.43,0,*42
1498651545.87,36774,20.25,73812.3,12.39,5.93,6.61,0,*4B
1498651547.07,36775,20.25,73816.5,12.37,5.49,6.29,0,*4F
1498651548.3,36776,20.25,73812.5,12.39,5.93,6.53,0,*48
1498651549.54,36777,20.25,73810.8,12.39,6.43,7.19,0,*48
1498651550.73,36778,20.25,73814.8,12.39,6.29,6.79,0,*4C
1498651551.96,36779,20.25,73814.0,12.39,6.39,6.87,0,*4D
1498651553.17,36780,20.25,73816.5,12.39,6.43,6.79,0,*47
1498651554.41,36781,20.25,73820.3,12.39,6.51,6.87,0,*44
1498651555.61,36782,20.25,73820.0,12.39,6.53,6.97,0,*44
1498651556.87,36783,20.25,73818.8,12.37,7.11,7.47,0,*40
1498651558.12,36784,20.25,73818.8,12.37,7.19,7.47,0,*4F
1498651559.35,36785,20.25,73820.3,12.37,7.65,7.97,0,*48
1498651560.56,36786,20.25,73816.5,12.39,7.59,7.77,0,*44
1498651561.79,36787,20.25,73816.0,12.37,7.79,7.87,0,*46
1498651563.0,36788,20.25,73814.5,12.37,8.09,8.19,0,*49
1498651564.26,36789,20.25,73816.8,12.37,8.37,8.37,0,*49
1498651565.5,36790,20.25,73814.5,12.37,8.33,8.27,0,*44
1498651566.73,36791,20.25,73814.8,12.37,8.45,8.37,0,*45
1498651567.99,36792,20.25,73812.5,12.37,8.55,8.47,0,*40
1498651569.22,36793,20.25,73814.5,12.39,8.47,8.47,0,*4C
1498651570.45,36794,20.25,73812.5,12.39,8.55,8.47,0,*48
1498651571.71,36795,20.25,73810.8,12.37,8.33,8.37,0,*40
1498651572.97,36796,20.25,73810.8,12.37,8.37,8.33,0,*43
1498651574.18,36797,20.25,73810.8,12.39,8.33,8.27,0,*4D
1498651575.36,36798,20.25,73810.8,12.39,8.09,7.97,0,*4F
1498651576.59,36799,20.25,73808.5,12.39,7.91,7.87,0,*41
1498651577.8,36800,20.25,73810.3,12.37,7.97,7.79,0,*47
1498651579.03,36801,20.25,73810.5,12.37,8.01,7.91,0,*40
1498651580.23,36802,20.25,73808.0,12.35,8.05,7.95,0,*41
1498651581.42,36803,20.25,73810.5,12.35,8.15,8.05,0,*47
1498651582.61,36804,20.25,73804.0,12.35,8.19,8.09,0,*40
1498651583.83,36805,20.25,73800.0,12.33,8.15,8.01,0,*43
1498651585.05,36806,20.25,73794.0,12.33,8.19,8.01,0,*4C
1498651586.28,36807,20.25,73794.0,12.33,8.01,7.83,0,*41
1498651587.51,36808,20.25,73794.0,12.33,7.15,7.05,0,*4A
1498651588.72,36809,20.25,73792.3,12.31,6.93,6.91,0,*4A
1498651589.95,36810,20.25,73792.8,12.31,7.23,7.27,0,*44
1498651591.19,36811,20.25,73792.8,12.29,6.21,6.17,0,*4D
1498651592.41,36812,20.25,73794.0,12.27,6.33,6.43,0,*42
1498651593.59,36813,20.25,73794.3,12.23,7.05,7.09,0,*4C
1498651594.82,36814,20.25,73798.3,12.19,6.47,6.61,0,*4A
1498651596.04,36815,20.25,73798.0,12.19,6.25,6.35,0,*4E
1498651597.27,36816,20.25,73794.3,12.17,6.87,6.97,0,*43
1498651598.5,36817,20.25,73796.5,12.15,6.39,6.65,0,*48
1498651599.73,36818,20.25,73792.8,12.11,6.43,6.61,0,*4A
1498651600.97,36819,20.25,73788.8,12.11,6.51,6.73,0,*4B
1498651602.21,36820,20.25,73794.8,12.11,6.51,6.91,0,*4D
1498651603.42,36821,20.25,73800.3,12.11,6.61,6.79,0,*49
1498651604.64,36822,20.25,73792.3,12.09,6.53,6.79,0,*42
1498651605.87,36823,20.25,73798.0,12.07,6.47,6.57,0,*44
1498651607.07,36824,20.25,73792.5,12.07,6.65,6.79,0,*4F
1498651608.33,36825,20.25,73792.0,12.05,7.23,7.23,0,*41
1498651609.57,36826,20.25,73796.0,12.01,7.27,7.37,0,*47
1498651610.8,36827,20.25,73792.0,12.01,7.37,7.47,0,*40
1498651612.0,36828,20.25,73796.3,12.01,7.37,7.37,0,*48
1498651613.21,36829,20.25,73794.3,12.01,6.93,6.93,0,*49
1498651614.43,36830,20.25,73806.5,11.99,7.29,7.19,0,*40
1498651615.68,36831,20.25,73798.5,11.97,7.23,7.23,0,*4C
1498651616.94,36832,20.25,73798.5,11.97,7.23,7.15,0,*4A
1498651618.14,36833,20.25,73796.3,11.97,7.45,7.45,0,*4E
1498651619.35,36834,20.25,73792.5,11.93,7.19,7.29,0,*4E
1498651620.54,36835,20.25,73798.8,11.93,7.29,7.51,0,*43
1498651621.74,36836,20.25,73792.5,11.93,7.65,8.01,0,*42
1498651622.95,36837,20.25,73794.3,11.93,7.29,7.73,0,*41
1498651624.15,36838,20.25,73794.8,11.93,6.61,7.09,0,*4E
1498651625.38,36839,20.25,73792.5,11.93,6.73,7.23,0,*44
1498651626.64,36840,20.25,73794.8,11.91,7.19,7.69,0,*4B
1498651627.84,36841,20.25,73794.5,11.89,7.05,7.65,0,*42
1498651629.04,36842,20.25,73790.0,11.91,6.79,7.59,0,*4D
1498651630.3,36843,20.25,73784.3,11.91,6.73,7.73,0,*4E
1498651631.56,36844,20.25,73782.5,11.91,6.13,7.15,0,*4F
1498651632.73,36845,20.25,73784.0,11.89,5.29,6.75,0,*4A
1498651633.93,36846,20.25,73786.8,11.89,4.97,6.79,0,*41
1498651635.09,36847,20.25,73792.0,11.89,4.85,7.01,0,*4D
1498651636.3,36848,20.25,73796.5,11.87,4.57,6.75,0,*41
1498651637.5,36849,20.25,73796.5,11.87,4.45,6.75,0,*43
1498651638.71,36850,20.25,73802.0,11.89,3.89,6.43,0,*47
1498651639.95,36851,20.25,73806.8,11.85,3.03,5.51,0,*48
1498651641.13,36852,20.25,73798.0,11.81,3.59,6.25,0,*40
1498651642.33,36853,20.25,73800.0,11.81,3.93,6.61,0,*47
1498651643.5,36854,20.25,73800.3,11.81,4.19,6.83,0,*49
1498651644.74,36855,20.25,73812.0,11.79,4.53,7.15,0,*4F
1498651645.98,36856,20.25,73814.0,11.79,4.97,7.51,0,*44
1498651647.19,36857,20.25,73814.8,11.85,4.93,7.51,0,*42
1498651648.42,36858,20.25,73804.8,11.85,4.67,7.19,0,*4A
1498651649.63,36859,20.25,73812.5,11.85,4.63,7.29,0,*4C
1498651650.89,36860,20.25,73814.3,11.87,4.59,7.23,0,*47
1498651652.07,36861,20.25,73818.5,11.85,4.07,6.75,0,*4D
1498651653.25,36862,20.25,73818.3,11.85,3.59,6.29,0,*4B
1498651654.47,36863,20.25,73812.5,11.85,3.49,6.13,0,*42
1498651655.71,36864,20.25,73808.5,11.81,3.67,6.35,0,*49
1498651656.92,36865,20.25,73792.3,11.81,4.05,6.79,0,*43
1498651658.12,36866,20.25,73792.0,11.85,4.57,7.11,0,*4C
1498651659.33,36867,20.25,73802.8,11.87,4.85,7.59,0,*4C
1498651660.57,36868,20.25,73804.5,11.85,5.01,7.61,0,*47
1498651661.77,36869,20.25,73806.5,11.85,5.07,7.65,0,*44
1498651663.0,36870,20.25,73802.5,11.87,4.97,7.59,0,*49
1498651664.24,36871,20.25,73810.5,11.87,5.15,7.69,0,*40
1498651665.44,36872,20.25,73804.5,11.89,5.05,7.45,0,*42
1498651666.66,36873,20.25,73810.0,11.91,5.29,7.83,0,*4E
1498651667.88,36874,20.25,73810.8,11.91,5.55,7.97,0,*47
1498651669.07,36875,20.25,73816.0,11.91,5.59,7.97,0,*4A
1498651670.28,36876,20.25,73802.0,11.91,5.19,7.59,0,*4F
1498651671.53,36877,20.25,73794.8,11.91,4.75,7.27,0,*4C
1498651672.79,36878,20.25,73792.3,11.91,4.71,7.19,0,*4A
1498651673.99,36879,20.25,73804.5,11.93,4.67,7.09,0,*4F
1498651675.16,36880,20.25,73816.3,11.93,5.11,7.41,0,*45
1498651676.36,36881,20.25,73818.5,11.93,5.05,7.33,0,*44
1498651677.61,36882,20.25,73820.8,11.91,5.55,7.73,0,*44
1498651678.79,36883,20.25,73824.5,11.93,6.07,7.97,0,*49
1498651679.96,36884,20.25,73828.3,11.93,6.07,8.09,0,*46
1498651681.14,36885,20.25,73824.0,11.93,6.07,7.97,0,*4F
1498651682.38,36886,20.25,73818.3,11.95,6.03,7.87,0,*4F
1498651683.61,36887,20.25,73816.5,11.95,6.17,7.97,0,*4A
1498651684.84,36888,20.25,73826.3,11.95,6.17,8.01,0,*45
1498651686.08,36889,20.25,73832.5,11.95,6.51,8.23,0,*46
1498651687.32,36890,20.25,73830.8,11.95,5.81,7.51,0,*4A
1498651688.54,36891,20.25,73816.0,11.93,5.51,7.11,0,*44
1498651689.77,36892,20.25,73804.8,11.95,5.37,6.87,0,*4F
1498651691.03,36893,20.25,73810.0,11.95,6.13,7.73,0,*41
1498651692.29,36894,20.25,73812.8,11.95,6.39,7.91,0,*42
1498651693.51,36895,20.25,73812.5,11.97,6.29,7.79,0,*46
1498651694.77,36896,20.25,73812.5,11.97,6.53,7.95,0,*4A
1498651696.03,36897,20.25,73806.3,11.95,6.73,7.91,0,*4F
1498651697.21,36898,20.25,73802.0,11.93,6.83,8.01,0,*4F
1498651698.42,36899,20.25,73804.3,11.95,6.83,8.09,0,*40
1498651699.65,36900,20.25,73810.5,11.97,6.43,7.59,0,*45
1498651700.87,36901,20.25,73814.3,11.97,6.33,7.59,0,*43
1498651702.1,36902,20.25,73812.8,11.95,6.17,7.51,0,*4C
1498651703.36,36903,20.25,73816.0,11.95,5.93,7.23,0,*47
1498651704.57,36904,20.25,73802.3,11.93,5.93,6.97,0,*48
1498651705.77,36905,20.25,73794.3,11.93,6.13,7.09,0,*44
1498651706.98,36906,20.25,73794.0,11.95,6.07,6.75,0,*4E
1498651708.16,36907,20.25,73794.5,11.93,6.29,6.97,0,*49
1498651709.39,36908,20.25,73798.0,11.91,6.03,6.73,0,*46
1498651710.62,36909,20.25,73794.0,11.89,6.65,7.23,0,*4A
1498651711.85,36910,20.25,73798.8,11.89,6.57,7.11,0,*42
1498651713.04,36911,20.25,73792.8,11.89,6.07,6.69,0,*48
1498651714.28,36912,20.25,73796.3,11.87,6.65,7.33,0,*4F
1498651715.54,36913,20.25,73798.3,11.87,6.65,7.23,0,*4F
1498651716.74,36914,20.25,73806.3,11.85,6.39,7.09,0,*4B
1498651717.95,36915,20.25,73806.5,11.85,6.53,7.29,0,*44
1498651719.18,36916,20.25,73806.3,11.85,6.39,7.23,0,*41
1498651720.41,36917,20.25,73806.0,11.85,5.81,6.61,0,*47
1498651721.61,36918,20.25,73802.0,11.81,5.49,6.35,0,*49
1498651722.84,36919,20.25,73806.8,11.79,5.29,6.17,0,*49